Time,TemperatureF,DewpointF,PressureIn,WindDirection,WindDirectionDegrees,WindSpeedMPH,WindSpeedGustMPH,Humidity,HourlyPrecipIn,Conditions,Clouds,dailyrainin,SoftwareType,DateUTC
2013-06-05 00:03:00,54.5,48.8,30.03,North,0,0.0,0.0,81,0.00,,,0.00,WUHU21623XXSP,2013-06-05 05:03:00,
2013-06-05 00:08:00,54.5,48.8,30.03,North,0,0.0,0.0,81,0.00,,,0.00,WUHU21623XXSP,2013-06-05 05:08:00,
2013-06-05 00:13:00,54.5,48.8,30.03,North,0,0.0,0.0,81,0.00,,,0.00,WUHU21623XXSP,2013-06-05 05:13:00,
2013-06-05 00:18:00,54.5,48.8,30.03,North,0,0.0,0.0,81,0.00,,,0.00,WUHU21623XXSP,2013-06-05 05:18:00,
2013-06-05 00:23:00,54.5,48.8,30.03,North,0,0.0,0.0,81,0.00,,,0.00,WUHU21623XXSP,2013-06-05 05:23:00,
2013-06-05 00:28:00,54.5,48.8,30.03,North,0,0.0,0.0,81,0.00,,,0.00,WUHU21623XXSP,2013-06-05 05:28:00,
2013-06-05 00:33:00,54.5,48.8,30.03,North,0,0.0,0.0,81,0.00,,,0.00,WUHU21623XXSP,2013-06-05 05:33:00,
2013-06-05 00:38:00,54.5,48.8,30.03,North,0,0.0,0.0,81,0.00,,,0.00,WUHU21623XXSP,2013-06-05 05:38:00,
2013-06-05 00:43:00,54.5,48.8,30.03,North,0,0.0,0.0,81,0.00,,,0.00,WUHU21623XXSP,2013-06-05 05:43:00,
2013-06-05 00:48:00,54.5,48.8,30.03,North,0,0.0,0.0,81,0.00,,,0.00,WUHU21623XXSP,2013-06-05 05:48:00,
2013-06-05 00:53:00,54.5,48.8,30.03,North,0,0.0,0.0,81,0.00,,,0.00,WUHU21623XXSP,2013-06-05 05:53:00,
2013-06-05 00:58:00,54.5,48.8,30.03,North,0,0.0,0.0,81,0.00,,,0.00,WUHU21623XXSP,2013-06-05 05:58:00,
2013-06-05 01:03:00,54.5,48.8,30.03,North,0,0.0,0.0,81,0.00,,,0.00,WUHU21623XXSP,2013-06-05 06:03:00,
2013-06-05 01:08:00,54.5,49.1,30.03,North,0,0.0,0.0,82,0.00,,,0.00,WUHU21623XXSP,2013-06-05 06:08:00,
2013-06-05 01:13:00,54.5,49.1,30.03,North,0,0.0,0.0,82,0.00,,,0.00,WUHU21623XXSP,2013-06-05 06:13:00,
2013-06-05 01:18:00,54.5,49.1,30.02,North,0,0.0,0.0,82,0.00,,,0.00,WUHU21623XXSP,2013-06-05 06:18:00,
2013-06-05 01:23:00,54.5,49.1,30.02,North,0,0.0,0.0,82,0.00,,,0.00,WUHU21623XXSP,2013-06-05 06:23:00,
2013-06-05 01:28:00,54.3,48.9,30.02,North,0,0.0,0.0,82,0.00,,,0.00,WUHU21623XXSP,2013-06-05 06:28:00,
2013-06-05 01:33:00,54.3,48.9,30.02,North,0,0.0,0.0,82,0.00,,,0.00,WUHU21623XXSP,2013-06-05 06:33:00,
2013-06-05 01:38:00,54.3,48.9,30.02,North,0,0.0,0.0,82,0.00,,,0.00,WUHU21623XXSP,2013-06-05 06:38:00,
2013-06-05 01:43:00,54.3,48.9,30.03,North,0,0.0,0.0,82,0.00,,,0.00,WUHU21623XXSP,2013-06-05 06:43:00,
2013-06-05 01:48:00,54.3,48.9,30.03,North,0,0.0,0.0,82,0.00,,,0.00,WUHU21623XXSP,2013-06-05 06:48:00,
2013-06-05 01:53:00,54.3,48.9,30.03,North,0,0.0,0.0,82,0.00,,,0.00,WUHU21623XXSP,2013-06-05 06:53:00,
2013-06-05 01:58:00,54.3,49.2,30.03,North,0,0.0,0.0,83,0.00,,,0.00,WUHU21623XXSP,2013-06-05 06:58:00,
2013-06-05 02:03:00,54.3,49.2,30.03,North,0,0.0,0.0,83,0.00,,,0.00,WUHU21623XXSP,2013-06-05 07:03:00,
2013-06-05 02:10:00,54.3,49.2,30.03,North,0,0.0,0.0,83,0.00,,,0.00,WUHU21623XXSP,2013-06-05 07:10:00,
2013-06-05 02:15:00,54.3,49.2,30.03,North,0,0.0,0.0,83,0.00,,,0.00,WUHU21623XXSP,2013-06-05 07:15:00,
2013-06-05 02:20:00,54.3,49.2,30.03,North,0,0.0,0.0,83,0.00,,,0.00,WUHU21623XXSP,2013-06-05 07:20:00,
2013-06-05 02:25:00,54.3,49.2,30.03,North,0,0.0,0.0,83,0.00,,,0.00,WUHU21623XXSP,2013-06-05 07:25:00,
2013-06-05 02:30:00,54.3,49.2,30.02,North,0,0.0,0.0,83,0.00,,,0.00,WUHU21623XXSP,2013-06-05 07:30:00,
2013-06-05 02:35:00,54.3,49.2,30.02,North,0,0.0,0.0,83,0.00,,,0.00,WUHU21623XXSP,2013-06-05 07:35:00,
2013-06-05 02:40:00,54.3,49.5,30.02,North,0,0.0,0.0,84,0.00,,,0.00,WUHU21623XXSP,2013-06-05 07:40:00,
2013-06-05 02:45:00,54.1,49.4,30.02,North,0,0.0,0.0,84,0.00,,,0.00,WUHU21623XXSP,2013-06-05 07:45:00,
2013-06-05 02:50:00,54.1,49.4,30.02,North,0,0.0,0.0,84,0.00,,,0.00,WUHU21623XXSP,2013-06-05 07:50:00,
2013-06-05 02:55:00,54.1,49.4,30.02,North,0,0.0,0.0,84,0.00,,,0.00,WUHU21623XXSP,2013-06-05 07:55:00,
2013-06-05 03:00:00,54.1,49.4,30.02,North,0,0.0,0.0,84,0.00,,,0.00,WUHU21623XXSP,2013-06-05 08:00:00,
2013-06-05 03:05:00,54.1,49.4,30.03,North,0,0.0,0.0,84,0.00,,,0.00,WUHU21623XXSP,2013-06-05 08:05:00,
2013-06-05 03:10:00,54.1,49.4,30.03,North,0,0.0,0.0,84,0.00,,,0.00,WUHU21623XXSP,2013-06-05 08:10:00,
2013-06-05 03:15:00,54.1,49.4,30.03,North,0,0.0,0.0,84,0.00,,,0.00,WUHU21623XXSP,2013-06-05 08:15:00,
2013-06-05 03:20:00,54.1,49.4,30.02,North,0,0.0,0.0,84,0.00,,,0.00,WUHU21623XXSP,2013-06-05 08:20:00,
2013-06-05 03:25:00,54.1,49.7,30.02,North,0,0.0,0.0,85,0.00,,,0.00,WUHU21623XXSP,2013-06-05 08:25:00,
2013-06-05 03:30:00,54.1,49.7,30.02,North,0,0.0,0.0,85,0.00,,,0.00,WUHU21623XXSP,2013-06-05 08:30:00,
2013-06-05 03:35:00,54.1,49.7,30.02,North,0,0.0,0.0,85,0.00,,,0.00,WUHU21623XXSP,2013-06-05 08:35:00,
2013-06-05 03:40:00,54.1,50.0,30.01,North,0,0.0,0.0,86,0.00,,,0.00,WUHU21623XXSP,2013-06-05 08:40:00,
2013-06-05 03:45:00,54.0,49.8,30.01,North,0,0.0,0.0,86,0.00,,,0.00,WUHU21623XXSP,2013-06-05 08:45:00,
2013-06-05 03:50:00,54.0,49.8,30.01,North,0,0.0,0.0,86,0.00,,,0.00,WUHU21623XXSP,2013-06-05 08:50:00,
2013-06-05 03:55:00,53.8,50.0,30.01,North,0,0.0,0.0,87,0.00,,,0.00,WUHU21623XXSP,2013-06-05 08:55:00,
2013-06-05 04:00:00,53.8,50.0,30.00,North,0,0.0,0.0,87,0.00,,,0.00,WUHU21623XXSP,2013-06-05 09:00:00,
2013-06-05 04:05:00,53.6,49.8,30.00,North,0,0.0,0.0,87,0.00,,,0.00,WUHU21623XXSP,2013-06-05 09:05:00,
2013-06-05 04:10:00,53.4,49.9,30.00,North,0,0.0,0.0,88,0.00,,,0.00,WUHU21623XXSP,2013-06-05 09:10:00,
2013-06-05 04:15:00,53.4,49.9,30.00,North,0,0.0,0.0,88,0.00,,,0.00,WUHU21623XXSP,2013-06-05 09:15:00,
2013-06-05 04:20:00,53.2,49.7,30.00,North,0,0.0,0.0,88,0.00,,,0.00,WUHU21623XXSP,2013-06-05 09:20:00,
2013-06-05 04:25:00,53.2,50.1,29.98,North,0,0.0,0.0,89,0.00,,,0.00,WUHU21623XXSP,2013-06-05 09:25:00,
2013-06-05 04:30:00,53.2,50.1,29.98,North,0,0.0,0.0,89,0.00,,,0.00,WUHU21623XXSP,2013-06-05 09:30:00,
2013-06-05 04:35:00,53.2,50.1,29.98,North,0,0.0,0.0,89,0.00,,,0.00,WUHU21623XXSP,2013-06-05 09:35:00,
2013-06-05 04:41:00,53.2,50.1,29.98,North,0,0.0,0.0,89,0.00,,,0.00,WUHU21623XXSP,2013-06-05 09:41:00,
2013-06-05 04:46:00,53.2,50.1,29.98,North,0,0.0,0.0,89,0.00,,,0.00,WUHU21623XXSP,2013-06-05 09:46:00,
2013-06-05 04:51:00,53.2,50.1,29.98,North,0,0.0,0.0,89,0.00,,,0.00,WUHU21623XXSP,2013-06-05 09:51:00,
2013-06-05 04:56:00,53.2,50.4,29.98,North,0,0.0,0.0,90,0.00,,,0.00,WUHU21623XXSP,2013-06-05 09:56:00,
2013-06-05 05:01:00,53.2,50.4,29.98,North,0,0.0,0.0,90,0.00,,,0.00,WUHU21623XXSP,2013-06-05 10:01:00,
2013-06-05 05:10:00,53.2,50.4,29.98,North,0,0.0,0.0,90,0.00,,,0.00,WUHU21623XXSP,2013-06-05 10:10:00,
2013-06-05 05:15:00,53.2,50.4,29.99,North,0,0.0,0.0,90,0.00,,,0.00,WUHU21623XXSP,2013-06-05 10:15:00,
2013-06-05 05:20:00,53.4,50.5,29.99,North,0,0.0,0.0,90,0.00,,,0.00,WUHU21623XXSP,2013-06-05 10:20:00,
2013-06-05 05:25:00,53.4,50.5,29.99,North,0,0.0,0.0,90,0.00,,,0.00,WUHU21623XXSP,2013-06-05 10:25:00,
2013-06-05 05:30:00,53.4,50.5,30.00,North,0,0.0,0.0,90,0.00,,,0.00,WUHU21623XXSP,2013-06-05 10:30:00,
2013-06-05 05:35:00,53.4,50.5,30.00,North,0,0.0,0.0,90,0.00,,,0.00,WUHU21623XXSP,2013-06-05 10:35:00,
2013-06-05 05:40:00,53.4,50.5,30.00,North,0,0.0,0.0,90,0.00,,,0.00,WUHU21623XXSP,2013-06-05 10:40:00,
2013-06-05 05:45:00,53.4,50.5,30.00,North,0,0.0,0.0,90,0.00,,,0.00,WUHU21623XXSP,2013-06-05 10:45:00,
2013-06-05 05:50:00,53.4,50.5,30.00,North,0,0.0,0.0,90,0.00,,,0.00,WUHU21623XXSP,2013-06-05 10:50:00,
2013-06-05 05:55:00,53.4,50.5,29.99,North,0,0.0,0.0,90,0.00,,,0.00,WUHU21623XXSP,2013-06-05 10:55:00,
2013-06-05 06:00:00,53.8,50.9,29.99,North,0,0.0,0.0,90,0.00,,,0.00,WUHU21623XXSP,2013-06-05 11:00:00,
2013-06-05 06:05:00,53.8,50.9,29.99,North,0,0.0,0.0,90,0.00,,,0.00,WUHU21623XXSP,2013-06-05 11:05:00,
2013-06-05 06:10:00,53.8,51.2,29.99,North,0,0.0,0.0,91,0.00,,,0.00,WUHU21623XXSP,2013-06-05 11:10:00,
2013-06-05 06:15:00,53.8,50.9,29.98,North,0,0.0,0.0,90,0.00,,,0.00,WUHU21623XXSP,2013-06-05 11:15:00,
2013-06-05 06:20:00,53.8,50.9,29.98,North,0,0.0,0.0,90,0.00,,,0.00,WUHU21623XXSP,2013-06-05 11:20:00,
2013-06-05 06:25:00,53.8,50.9,29.98,North,0,0.0,0.0,90,0.00,,,0.00,WUHU21623XXSP,2013-06-05 11:25:00,
2013-06-05 06:30:00,53.8,50.9,29.99,North,0,0.0,0.0,90,0.00,,,0.00,WUHU21623XXSP,2013-06-05 11:30:00,
2013-06-05 06:35:00,54.0,51.1,29.98,North,0,0.0,0.0,90,0.00,,,0.00,WUHU21623XXSP,2013-06-05 11:35:00,
2013-06-05 06:40:00,54.1,51.3,29.99,North,0,0.0,0.0,90,0.00,,,0.00,WUHU21623XXSP,2013-06-05 11:40:00,
2013-06-05 06:45:00,54.1,51.3,29.99,North,0,0.0,0.0,90,0.00,,,0.00,WUHU21623XXSP,2013-06-05 11:45:00,
2013-06-05 06:50:00,54.0,51.1,29.99,North,0,0.0,0.0,90,0.00,,,0.00,WUHU21623XXSP,2013-06-05 11:50:00,
2013-06-05 06:55:00,54.1,51.3,29.98,North,0,0.0,0.0,90,0.00,,,0.00,WUHU21623XXSP,2013-06-05 11:55:00,
2013-06-05 07:00:00,54.1,51.3,29.98,North,0,0.0,0.0,90,0.00,,,0.00,WUHU21623XXSP,2013-06-05 12:00:00,
2013-06-05 07:05:00,54.3,51.4,29.98,North,0,0.0,0.0,90,0.00,,,0.00,WUHU21623XXSP,2013-06-05 12:05:00,
2013-06-05 07:10:00,54.3,51.4,29.98,North,0,0.0,0.0,90,0.00,,,0.00,WUHU21623XXSP,2013-06-05 12:10:00,
2013-06-05 07:15:00,54.1,51.5,29.98,North,0,0.0,0.0,91,0.00,,,0.00,WUHU21623XXSP,2013-06-05 12:15:00,
2013-06-05 07:20:00,54.1,51.5,29.98,North,0,0.0,0.0,91,0.00,,,0.00,WUHU21623XXSP,2013-06-05 12:20:00,
2013-06-05 07:25:00,54.1,51.5,29.98,North,0,0.0,0.0,91,0.00,,,0.00,WUHU21623XXSP,2013-06-05 12:25:00,
2013-06-05 07:30:00,54.1,51.5,29.99,North,0,0.0,0.0,91,0.00,,,0.00,WUHU21623XXSP,2013-06-05 12:30:00,
2013-06-05 07:35:00,54.3,51.7,29.99,North,0,0.0,0.0,91,0.00,,,0.00,WUHU21623XXSP,2013-06-05 12:35:00,
2013-06-05 07:40:00,54.3,51.7,29.98,North,0,0.0,0.0,91,0.00,,,0.00,WUHU21623XXSP,2013-06-05 12:40:00,
2013-06-05 07:45:00,54.3,51.7,29.99,North,0,0.0,0.0,91,0.00,,,0.00,WUHU21623XXSP,2013-06-05 12:45:00,
2013-06-05 07:50:00,54.3,51.7,29.99,North,0,0.0,0.0,91,0.00,,,0.00,WUHU21623XXSP,2013-06-05 12:50:00,
2013-06-05 07:55:00,54.3,51.7,29.99,North,0,0.0,0.0,91,0.00,,,0.00,WUHU21623XXSP,2013-06-05 12:55:00,
2013-06-05 08:00:00,54.5,51.9,29.99,North,0,0.0,0.0,91,0.00,,,0.00,WUHU21623XXSP,2013-06-05 13:00:00,
2013-06-05 08:05:00,54.5,51.9,29.99,North,0,0.0,0.0,91,0.00,,,0.00,WUHU21623XXSP,2013-06-05 13:05:00,
2013-06-05 08:10:00,54.7,52.1,29.99,North,0,0.0,0.0,91,0.00,,,0.00,WUHU21623XXSP,2013-06-05 13:10:00,
2013-06-05 08:15:00,54.7,52.1,29.98,North,0,0.0,0.0,91,0.00,,,0.00,WUHU21623XXSP,2013-06-05 13:15:00,
2013-06-05 08:20:00,54.7,52.1,29.98,North,0,0.0,0.0,91,0.00,,,0.00,WUHU21623XXSP,2013-06-05 13:20:00,
2013-06-05 08:25:00,54.9,52.3,29.98,North,0,0.0,0.0,91,0.00,,,0.00,WUHU21623XXSP,2013-06-05 13:25:00,
2013-06-05 08:30:00,55.0,52.4,29.98,North,0,0.0,0.0,91,0.00,,,0.00,WUHU21623XXSP,2013-06-05 13:30:00,
2013-06-05 08:35:00,54.9,52.3,29.98,North,0,0.0,0.0,91,0.00,,,0.00,WUHU21623XXSP,2013-06-05 13:35:00,
2013-06-05 08:40:00,54.9,52.3,29.99,North,0,0.0,0.0,91,0.00,,,0.00,WUHU21623XXSP,2013-06-05 13:40:00,
2013-06-05 08:45:00,55.0,52.4,29.99,North,0,0.0,0.0,91,0.00,,,0.00,WUHU21623XXSP,2013-06-05 13:45:00,
2013-06-05 08:50:00,55.0,52.4,29.99,North,0,0.0,0.0,91,0.00,,,0.00,WUHU21623XXSP,2013-06-05 13:50:00,
2013-06-05 08:55:00,55.0,52.4,29.99,North,0,0.0,0.0,91,0.00,,,0.00,WUHU21623XXSP,2013-06-05 13:55:00,
2013-06-05 09:00:00,55.0,52.4,29.99,North,0,0.0,0.0,91,0.00,,,0.00,WUHU21623XXSP,2013-06-05 14:00:00,
2013-06-05 09:05:00,55.2,52.6,29.98,North,0,0.0,0.0,91,0.00,,,0.00,WUHU21623XXSP,2013-06-05 14:05:00,
2013-06-05 09:10:00,55.2,52.9,29.98,North,0,0.0,0.0,92,0.00,,,0.00,WUHU21623XXSP,2013-06-05 14:10:00,
2013-06-05 09:15:00,55.6,53.3,29.98,North,0,0.0,0.0,92,0.00,,,0.00,WUHU21623XXSP,2013-06-05 14:15:00,
2013-06-05 09:20:00,55.8,53.5,29.98,North,0,0.0,0.0,92,0.00,,,0.00,WUHU21623XXSP,2013-06-05 14:20:00,
2013-06-05 09:25:00,55.9,53.3,29.98,North,0,0.0,0.0,91,0.00,,,0.00,WUHU21623XXSP,2013-06-05 14:25:00,
2013-06-05 09:30:00,55.9,53.3,29.98,North,0,0.0,0.0,91,0.00,,,0.00,WUHU21623XXSP,2013-06-05 14:30:00,
2013-06-05 09:35:00,56.1,53.5,29.98,North,0,0.0,0.0,91,0.00,,,0.00,WUHU21623XXSP,2013-06-05 14:35:00,
2013-06-05 09:41:00,56.3,53.7,29.98,North,0,0.0,0.0,91,0.00,,,0.00,WUHU21623XXSP,2013-06-05 14:41:00,
2013-06-05 09:46:00,56.5,53.9,29.97,North,0,0.0,0.0,91,0.00,,,0.00,WUHU21623XXSP,2013-06-05 14:46:00,
2013-06-05 09:51:00,56.8,54.2,29.97,North,0,0.0,0.0,91,0.00,,,0.00,WUHU21623XXSP,2013-06-05 14:51:00,
2013-06-05 09:56:00,57.0,54.4,29.97,North,0,0.0,0.0,91,0.00,,,0.00,WUHU21623XXSP,2013-06-05 14:56:00,
2013-06-05 10:01:00,57.4,54.8,29.97,North,0,0.0,0.0,91,0.00,,,0.00,WUHU21623XXSP,2013-06-05 15:01:00,
2013-06-05 10:06:00,57.6,55.0,29.97,North,0,0.0,0.0,91,0.00,,,0.00,WUHU21623XXSP,2013-06-05 15:06:00,
2013-06-05 10:11:00,57.9,55.0,29.97,North,0,0.0,0.0,90,0.00,,,0.00,WUHU21623XXSP,2013-06-05 15:11:00,
2013-06-05 10:16:00,57.7,54.9,29.97,North,0,0.0,0.0,90,0.00,,,0.00,WUHU21623XXSP,2013-06-05 15:16:00,
2013-06-05 10:21:00,57.6,54.7,29.96,North,0,0.0,0.0,90,0.00,,,0.00,WUHU21623XXSP,2013-06-05 15:21:00,
2013-06-05 10:26:00,57.6,54.7,29.96,North,0,0.0,0.0,90,0.00,,,0.00,WUHU21623XXSP,2013-06-05 15:26:00,
2013-06-05 10:31:00,57.6,54.7,29.97,North,0,0.0,0.0,90,0.00,,,0.00,WUHU21623XXSP,2013-06-05 15:31:00,
2013-06-05 10:36:00,57.6,54.7,29.97,North,0,0.0,0.0,90,0.00,,,0.00,WUHU21623XXSP,2013-06-05 15:36:00,
2013-06-05 10:41:00,57.6,54.7,29.97,North,0,0.0,0.0,90,0.00,,,0.00,WUHU21623XXSP,2013-06-05 15:41:00,
2013-06-05 10:46:00,57.7,54.9,29.97,North,0,0.0,0.0,90,0.00,,,0.00,WUHU21623XXSP,2013-06-05 15:46:00,
2013-06-05 10:51:00,57.7,54.9,29.97,North,0,0.0,0.0,90,0.00,,,0.00,WUHU21623XXSP,2013-06-05 15:51:00,
2013-06-05 10:56:00,57.9,55.0,29.97,North,0,0.0,0.0,90,0.00,,,0.00,WUHU21623XXSP,2013-06-05 15:56:00,
2013-06-05 11:01:00,57.9,54.7,29.97,North,0,0.0,0.0,89,0.00,,,0.00,WUHU21623XXSP,2013-06-05 16:01:00,
2013-06-05 11:06:00,57.9,54.7,29.97,North,0,0.0,0.0,89,0.00,,,0.00,WUHU21623XXSP,2013-06-05 16:06:00,
2013-06-05 11:11:00,57.9,54.7,29.98,North,0,0.0,0.0,89,0.00,,,0.00,WUHU21623XXSP,2013-06-05 16:11:00,
2013-06-05 11:16:00,58.1,54.9,29.98,North,0,0.0,0.0,89,0.00,,,0.00,WUHU21623XXSP,2013-06-05 16:16:00,
2013-06-05 11:21:00,58.3,55.1,29.97,North,0,0.0,0.0,89,0.00,,,0.00,WUHU21623XXSP,2013-06-05 16:21:00,
2013-06-05 11:26:00,58.6,55.4,29.98,North,0,0.0,0.0,89,0.00,,,0.00,WUHU21623XXSP,2013-06-05 16:26:00,
2013-06-05 11:32:00,58.8,55.6,29.97,North,0,0.0,0.0,89,0.00,,,0.00,WUHU21623XXSP,2013-06-05 16:32:00,
2013-06-05 11:37:00,58.8,55.3,29.97,North,0,0.0,0.0,88,0.00,,,0.00,WUHU21623XXSP,2013-06-05 16:37:00,
2013-06-05 11:42:00,58.8,55.3,29.98,North,0,0.0,0.0,88,0.00,,,0.00,WUHU21623XXSP,2013-06-05 16:42:00,
2013-06-05 11:47:00,58.8,55.3,29.98,North,0,0.0,0.0,88,0.00,,,0.00,WUHU21623XXSP,2013-06-05 16:47:00,
2013-06-05 11:52:00,59.2,55.7,29.98,North,0,0.0,0.0,88,0.00,,,0.00,WUHU21623XXSP,2013-06-05 16:52:00,
2013-06-05 11:57:00,59.5,56.0,29.98,North,0,0.0,0.0,88,0.00,,,0.00,WUHU21623XXSP,2013-06-05 16:57:00,
2013-06-05 12:02:00,59.9,56.0,29.97,North,0,0.0,0.0,87,0.00,,,0.00,WUHU21623XXSP,2013-06-05 17:02:00,
2013-06-05 12:07:00,60.1,56.2,29.97,North,0,0.0,0.0,87,0.00,,,0.00,WUHU21623XXSP,2013-06-05 17:07:00,
2013-06-05 12:12:00,60.1,56.2,29.97,North,0,0.0,0.0,87,0.00,,,0.00,WUHU21623XXSP,2013-06-05 17:12:00,
2013-06-05 12:17:00,60.1,56.2,29.98,North,0,0.0,0.0,87,0.00,,,0.00,WUHU21623XXSP,2013-06-05 17:17:00,
2013-06-05 12:22:00,60.1,56.2,29.98,North,0,0.0,0.0,87,0.00,,,0.00,WUHU21623XXSP,2013-06-05 17:22:00,
2013-06-05 12:27:00,59.9,56.0,29.98,North,0,0.0,0.0,87,0.00,,,0.00,WUHU21623XXSP,2013-06-05 17:27:00,
2013-06-05 12:32:00,59.7,55.9,29.98,North,0,0.0,0.0,87,0.00,,,0.00,WUHU21623XXSP,2013-06-05 17:32:00,
2013-06-05 12:37:00,59.5,55.7,29.98,North,0,0.0,0.0,87,0.00,,,0.00,WUHU21623XXSP,2013-06-05 17:37:00,
2013-06-05 12:42:00,59.5,55.7,29.98,North,0,0.0,0.0,87,0.00,,,0.00,WUHU21623XXSP,2013-06-05 17:42:00,
2013-06-05 12:47:00,59.4,55.5,29.98,North,0,0.0,0.0,87,0.00,,,0.00,WUHU21623XXSP,2013-06-05 17:47:00,
2013-06-05 12:52:00,59.5,55.7,29.98,North,0,0.0,0.0,87,0.00,,,0.00,WUHU21623XXSP,2013-06-05 17:52:00,
2013-06-05 12:57:00,59.5,55.7,29.98,North,0,0.0,0.0,87,0.00,,,0.00,WUHU21623XXSP,2013-06-05 17:57:00,
2013-06-05 13:02:00,59.5,55.7,29.98,North,0,0.0,0.0,87,0.00,,,0.00,WUHU21623XXSP,2013-06-05 18:02:00,
2013-06-05 13:07:00,59.4,55.5,29.98,North,0,0.0,0.0,87,0.00,,,0.00,WUHU21623XXSP,2013-06-05 18:07:00,
2013-06-05 13:12:00,59.5,55.7,29.98,North,0,0.0,0.0,87,0.00,,,0.00,WUHU21623XXSP,2013-06-05 18:12:00,
2013-06-05 13:17:00,59.7,55.9,29.97,North,0,0.0,0.0,87,0.00,,,0.00,WUHU21623XXSP,2013-06-05 18:17:00,
2013-06-05 13:22:00,60.1,56.2,29.97,North,0,0.0,0.0,87,0.00,,,0.00,WUHU21623XXSP,2013-06-05 18:22:00,
2013-06-05 13:27:00,61.0,57.1,29.96,North,0,0.0,0.0,87,0.00,,,0.00,WUHU21623XXSP,2013-06-05 18:27:00,
2013-06-05 13:32:00,61.9,57.7,29.96,North,0,0.0,0.0,86,0.00,,,0.00,WUHU21623XXSP,2013-06-05 18:32:00,
2013-06-05 13:37:00,63.0,58.4,29.96,North,0,0.0,0.0,85,0.00,,,0.00,WUHU21623XXSP,2013-06-05 18:37:00,
2013-06-05 13:42:00,63.7,58.7,29.95,North,0,0.0,0.0,84,0.00,,,0.00,WUHU21623XXSP,2013-06-05 18:42:00,
2013-06-05 13:47:00,64.2,59.3,29.95,North,0,0.0,0.0,84,0.00,,,0.00,WUHU21623XXSP,2013-06-05 18:47:00,
2013-06-05 13:52:00,65.1,60.2,29.95,North,0,0.0,0.0,84,0.00,,,0.00,WUHU21623XXSP,2013-06-05 18:52:00,
2013-06-05 13:57:00,66.0,60.4,29.95,North,0,0.0,0.0,82,0.00,,,0.00,WUHU21623XXSP,2013-06-05 18:57:00,
2013-06-05 14:02:00,66.7,60.8,29.95,North,0,0.0,0.0,81,0.00,,,0.00,WUHU21623XXSP,2013-06-05 19:02:00,
2013-06-05 14:07:00,66.7,60.4,29.95,North,0,0.0,0.0,80,0.00,,,0.00,WUHU21623XXSP,2013-06-05 19:07:00,
2013-06-05 14:12:00,67.3,60.2,29.95,North,0,0.0,0.0,78,0.00,,,0.00,WUHU21623XXSP,2013-06-05 19:12:00,
2013-06-05 14:17:00,67.6,60.2,29.95,North,0,0.0,0.0,77,0.00,,,0.00,WUHU21623XXSP,2013-06-05 19:17:00,
2013-06-05 14:22:00,68.2,60.7,29.95,North,0,0.0,0.0,77,0.00,,,0.00,WUHU21623XXSP,2013-06-05 19:22:00,
2013-06-05 14:27:00,69.4,61.1,29.94,North,0,0.0,0.0,75,0.00,,,0.00,WUHU21623XXSP,2013-06-05 19:27:00,
2013-06-05 14:32:00,69.8,61.1,29.94,North,0,0.0,0.0,74,0.00,,,0.00,WUHU21623XXSP,2013-06-05 19:32:00,
2013-06-05 14:38:00,69.6,60.5,29.94,North,0,0.0,0.0,73,0.00,,,0.00,WUHU21623XXSP,2013-06-05 19:38:00,
2013-06-05 14:43:00,68.9,59.5,29.94,North,0,0.0,0.0,72,0.00,,,0.00,WUHU21623XXSP,2013-06-05 19:43:00,
2013-06-05 14:48:00,68.2,59.2,29.94,North,0,0.0,0.0,73,0.00,,,0.00,WUHU21623XXSP,2013-06-05 19:48:00,
2013-06-05 14:53:00,67.8,58.9,29.94,North,0,0.0,0.0,73,0.00,,,0.00,WUHU21623XXSP,2013-06-05 19:53:00,
2013-06-05 14:58:00,66.9,58.0,29.94,North,0,0.0,0.0,73,0.00,,,0.00,WUHU21623XXSP,2013-06-05 19:58:00,
2013-06-05 15:03:00,66.6,58.0,29.94,North,0,0.0,0.0,74,0.00,,,0.00,WUHU21623XXSP,2013-06-05 20:03:00,
2013-06-05 15:08:00,65.3,56.0,29.95,North,0,0.0,0.0,72,0.00,,,0.00,WUHU21623XXSP,2013-06-05 20:08:00,
2013-06-05 15:13:00,63.9,54.7,29.95,North,0,0.0,0.0,72,0.00,,,0.00,WUHU21623XXSP,2013-06-05 20:13:00,
2013-06-05 15:18:00,62.6,54.1,29.95,North,0,0.0,0.0,74,0.00,,,0.00,WUHU21623XXSP,2013-06-05 20:18:00,
2013-06-05 15:23:00,61.3,53.4,29.95,North,0,0.0,0.0,75,0.00,,,0.00,WUHU21623XXSP,2013-06-05 20:23:00,
2013-06-05 15:28:00,60.4,53.2,29.95,North,0,0.0,0.0,77,0.00,,,0.00,WUHU21623XXSP,2013-06-05 20:28:00,
2013-06-05 15:33:00,59.9,53.1,29.95,North,0,0.0,0.0,78,0.00,,,0.00,WUHU21623XXSP,2013-06-05 20:33:00,
2013-06-05 15:38:00,59.2,53.1,29.94,North,0,0.0,0.0,80,0.00,,,0.00,WUHU21623XXSP,2013-06-05 20:38:00,
2013-06-05 15:43:00,58.8,53.0,29.94,North,0,0.0,0.0,81,0.00,,,0.00,WUHU21623XXSP,2013-06-05 20:43:00,
2013-06-05 15:48:00,58.6,53.2,29.94,North,0,0.0,0.0,82,0.00,,,0.00,WUHU21623XXSP,2013-06-05 20:48:00,
2013-06-05 15:53:00,58.5,53.3,29.93,North,0,0.0,0.0,83,0.00,,,0.00,WUHU21623XXSP,2013-06-05 20:53:00,
2013-06-05 15:58:00,58.3,53.1,29.93,North,0,0.0,0.0,83,0.00,,,0.00,WUHU21623XXSP,2013-06-05 20:58:00,
2013-06-05 16:03:00,58.6,53.8,29.93,North,0,0.0,0.0,84,0.00,,,0.00,WUHU21623XXSP,2013-06-05 21:03:00,
2013-06-05 16:08:00,58.8,54.0,29.93,North,0,0.0,0.0,84,0.00,,,0.00,WUHU21623XXSP,2013-06-05 21:08:00,
2013-06-05 16:13:00,59.2,54.7,29.93,North,0,0.0,0.0,85,0.00,,,0.00,WUHU21623XXSP,2013-06-05 21:13:00,
2013-06-05 16:18:00,59.4,54.9,29.93,North,0,0.0,0.0,85,0.00,,,0.00,WUHU21623XXSP,2013-06-05 21:18:00,
2013-06-05 16:23:00,59.7,55.2,29.93,North,0,0.0,0.0,85,0.00,,,0.00,WUHU21623XXSP,2013-06-05 21:23:00,
2013-06-05 16:28:00,60.1,55.9,29.93,North,0,0.0,0.0,86,0.00,,,0.00,WUHU21623XXSP,2013-06-05 21:28:00,
2013-06-05 16:33:00,60.6,56.4,29.93,North,0,0.0,0.0,86,0.00,,,0.00,WUHU21623XXSP,2013-06-05 21:33:00,
2013-06-05 16:38:00,61.2,56.6,29.94,North,0,0.0,0.0,85,0.00,,,0.00,WUHU21623XXSP,2013-06-05 21:38:00,
2013-06-05 16:43:00,61.5,57.0,29.94,North,0,0.0,0.0,85,0.00,,,0.00,WUHU21623XXSP,2013-06-05 21:43:00,
2013-06-05 16:48:00,61.9,57.0,29.94,North,0,0.0,0.0,84,0.00,,,0.00,WUHU21623XXSP,2013-06-05 21:48:00,
2013-06-05 16:53:00,62.4,56.8,29.94,North,0,0.0,0.0,82,0.00,,,0.00,WUHU21623XXSP,2013-06-05 21:53:00,
2013-06-05 16:58:00,62.6,56.6,29.94,North,0,0.0,0.0,81,0.00,,,0.00,WUHU21623XXSP,2013-06-05 21:58:00,
2013-06-05 17:03:00,62.8,56.5,29.94,North,0,0.0,0.0,80,0.00,,,0.00,WUHU21623XXSP,2013-06-05 22:03:00,
2013-06-05 17:08:00,63.0,56.7,29.94,North,0,0.0,0.0,80,0.00,,,0.00,WUHU21623XXSP,2013-06-05 22:08:00,
2013-06-05 17:13:00,63.3,56.8,29.93,North,0,0.0,0.0,80,0.00,,,0.00,WUHU21623XXSP,2013-06-05 22:13:00,
2013-06-05 17:18:00,64.2,57.6,29.94,North,0,0.0,0.0,79,0.00,,,0.00,WUHU21623XXSP,2013-06-05 22:18:00,
2013-06-05 17:23:00,65.1,57.7,29.94,North,0,0.0,0.0,77,0.00,,,0.00,WUHU21623XXSP,2013-06-05 22:23:00,
2013-06-05 17:28:00,65.1,57.7,29.94,North,0,0.0,0.0,77,0.00,,,0.00,WUHU21623XXSP,2013-06-05 22:28:00,
2013-06-05 17:33:00,64.9,57.2,29.94,North,0,0.0,0.0,76,0.00,,,0.00,WUHU21623XXSP,2013-06-05 22:33:00,
2013-06-05 17:38:00,64.8,57.0,29.94,North,0,0.0,0.0,76,0.00,,,0.00,WUHU21623XXSP,2013-06-05 22:38:00,
2013-06-05 17:43:00,65.1,57.7,29.94,North,0,0.0,0.0,77,0.00,,,0.00,WUHU21623XXSP,2013-06-05 22:43:00,
2013-06-05 17:48:00,65.5,57.7,29.94,North,0,0.0,0.0,76,0.00,,,0.00,WUHU21623XXSP,2013-06-05 22:48:00,
2013-06-05 17:53:00,65.5,57.3,29.94,North,0,0.0,0.0,75,0.00,,,0.00,WUHU21623XXSP,2013-06-05 22:53:00,
2013-06-05 17:58:00,65.8,57.7,29.93,North,0,0.0,0.0,75,0.00,,,0.00,WUHU21623XXSP,2013-06-05 22:58:00,
2013-06-05 18:03:00,65.5,56.9,29.93,North,0,0.0,0.0,74,0.00,,,0.00,WUHU21623XXSP,2013-06-05 23:03:00,
2013-06-05 18:08:00,64.6,56.5,29.93,North,0,0.0,0.0,75,0.00,,,0.00,WUHU21623XXSP,2013-06-05 23:08:00,
2013-06-05 18:13:00,64.2,56.5,29.93,North,0,0.0,0.0,76,0.00,,,0.00,WUHU21623XXSP,2013-06-05 23:13:00,
2013-06-05 18:18:00,64.0,56.3,29.93,North,0,0.0,0.0,76,0.00,,,0.00,WUHU21623XXSP,2013-06-05 23:18:00,
2013-06-05 18:23:00,64.0,56.3,29.93,North,0,0.0,0.0,76,0.00,,,0.00,WUHU21623XXSP,2013-06-05 23:23:00,
2013-06-05 18:28:00,63.7,55.9,29.93,North,0,0.0,0.0,76,0.00,,,0.00,WUHU21623XXSP,2013-06-05 23:28:00,
2013-06-05 18:33:00,63.1,55.4,29.93,North,0,0.0,0.0,76,0.00,,,0.00,WUHU21623XXSP,2013-06-05 23:33:00,
2013-06-05 18:38:00,63.0,55.6,29.93,North,0,0.0,0.0,77,0.00,,,0.00,WUHU21623XXSP,2013-06-05 23:38:00,
2013-06-05 18:43:00,62.8,55.4,29.93,North,0,0.0,0.0,77,0.00,,,0.00,WUHU21623XXSP,2013-06-05 23:43:00,
2013-06-05 18:48:00,62.4,55.4,29.94,North,0,0.0,0.0,78,0.00,,,0.00,WUHU21623XXSP,2013-06-05 23:48:00,
2013-06-05 18:53:00,61.9,54.9,29.94,North,0,0.0,0.0,78,0.00,,,0.00,WUHU21623XXSP,2013-06-05 23:53:00,
2013-06-05 18:58:00,61.5,55.0,29.94,North,0,0.0,0.0,79,0.00,,,0.00,WUHU21623XXSP,2013-06-05 23:58:00,
2013-06-05 19:04:00,61.5,55.3,29.94,North,0,0.0,0.0,80,0.00,,,0.00,WUHU21623XXSP,2013-06-06 00:04:00,
2013-06-05 19:09:00,61.3,55.2,29.94,North,0,0.0,0.0,80,0.00,,,0.00,WUHU21623XXSP,2013-06-06 00:09:00,
2013-06-05 19:14:00,61.3,55.2,29.94,North,0,0.0,0.0,80,0.00,,,0.00,WUHU21623XXSP,2013-06-06 00:14:00,
2013-06-05 19:19:00,61.5,55.3,29.94,North,0,0.0,0.0,80,0.00,,,0.00,WUHU21623XXSP,2013-06-06 00:19:00,
2013-06-05 19:24:00,61.9,55.7,29.94,North,0,0.0,0.0,80,0.00,,,0.00,WUHU21623XXSP,2013-06-06 00:24:00,
2013-06-05 19:29:00,61.9,55.7,29.95,North,0,0.0,0.0,80,0.00,,,0.00,WUHU21623XXSP,2013-06-06 00:29:00,
2013-06-05 19:34:00,61.9,55.7,29.95,North,0,0.0,0.0,80,0.00,,,0.00,WUHU21623XXSP,2013-06-06 00:34:00,
2013-06-05 19:39:00,61.7,55.5,29.95,North,0,0.0,0.0,80,0.00,,,0.00,WUHU21623XXSP,2013-06-06 00:39:00,
2013-06-05 19:44:00,61.5,55.3,29.95,North,0,0.0,0.0,80,0.00,,,0.00,WUHU21623XXSP,2013-06-06 00:44:00,
2013-06-05 19:49:00,61.2,55.0,29.95,North,0,0.0,0.0,80,0.00,,,0.00,WUHU21623XXSP,2013-06-06 00:49:00,
2013-06-05 19:54:00,60.8,55.0,29.96,North,0,0.0,0.0,81,0.00,,,0.00,WUHU21623XXSP,2013-06-06 00:54:00,
2013-06-05 19:59:00,60.6,54.8,29.96,North,0,0.0,0.0,81,0.00,,,0.00,WUHU21623XXSP,2013-06-06 00:59:00,
2013-06-05 20:04:00,59.9,54.4,29.96,North,0,0.0,0.0,82,0.00,,,0.00,WUHU21623XXSP,2013-06-06 01:04:00,
2013-06-05 20:09:00,59.7,54.2,29.96,North,0,0.0,0.0,82,0.00,,,0.00,WUHU21623XXSP,2013-06-06 01:09:00,
2013-06-05 20:14:00,59.5,54.1,29.96,North,0,0.0,0.0,82,0.00,,,0.00,WUHU21623XXSP,2013-06-06 01:14:00,
2013-06-05 20:19:00,59.4,53.9,29.96,North,0,0.0,0.0,82,0.00,,,0.00,WUHU21623XXSP,2013-06-06 01:19:00,
2013-06-05 20:24:00,59.2,54.0,29.96,North,0,0.0,0.0,83,0.00,,,0.00,WUHU21623XXSP,2013-06-06 01:24:00,
2013-06-05 20:29:00,59.2,54.0,29.96,North,0,0.0,0.0,83,0.00,,,0.00,WUHU21623XXSP,2013-06-06 01:29:00,
2013-06-05 20:34:00,59.0,53.9,29.96,North,0,0.0,0.0,83,0.00,,,0.00,WUHU21623XXSP,2013-06-06 01:34:00,
2013-06-05 20:39:00,58.8,53.7,29.96,North,0,0.0,0.0,83,0.00,,,0.00,WUHU21623XXSP,2013-06-06 01:39:00,
2013-06-05 20:44:00,58.8,53.7,29.96,North,0,0.0,0.0,83,0.00,,,0.00,WUHU21623XXSP,2013-06-06 01:44:00,
2013-06-05 20:49:00,58.6,53.5,29.96,North,0,0.0,0.0,83,0.00,,,0.00,WUHU21623XXSP,2013-06-06 01:49:00,
2013-06-05 20:54:00,58.6,53.5,29.96,North,0,0.0,0.0,83,0.00,,,0.00,WUHU21623XXSP,2013-06-06 01:54:00,
2013-06-05 20:59:00,58.3,53.5,29.96,North,0,0.0,0.0,84,0.00,,,0.00,WUHU21623XXSP,2013-06-06 01:59:00,
2013-06-05 21:04:00,58.1,53.3,29.96,North,0,0.0,0.0,84,0.00,,,0.00,WUHU21623XXSP,2013-06-06 02:04:00,
2013-06-05 21:09:00,57.9,53.1,29.96,North,0,0.0,0.0,84,0.00,,,0.00,WUHU21623XXSP,2013-06-06 02:09:00,
2013-06-05 21:14:00,57.7,52.9,29.96,North,0,0.0,0.0,84,0.00,,,0.00,WUHU21623XXSP,2013-06-06 02:14:00,
2013-06-05 21:19:00,57.6,52.7,29.96,North,0,0.0,0.0,84,0.00,,,0.00,WUHU21623XXSP,2013-06-06 02:19:00,
2013-06-05 21:24:00,57.6,52.7,29.96,North,0,0.0,0.0,84,0.00,,,0.00,WUHU21623XXSP,2013-06-06 02:24:00,
2013-06-05 21:29:00,57.4,52.9,29.96,North,0,0.0,0.0,85,0.00,,,0.00,WUHU21623XXSP,2013-06-06 02:29:00,
2013-06-05 21:34:00,57.4,52.9,29.96,North,0,0.0,0.0,85,0.00,,,0.00,WUHU21623XXSP,2013-06-06 02:34:00,
2013-06-05 21:39:00,57.2,52.7,29.97,North,0,0.0,0.0,85,0.00,,,0.00,WUHU21623XXSP,2013-06-06 02:39:00,
2013-06-05 21:44:00,57.0,52.5,29.97,North,0,0.0,0.0,85,0.00,,,0.00,WUHU21623XXSP,2013-06-06 02:44:00,
2013-06-05 21:49:00,57.0,52.5,29.97,North,0,0.0,0.0,85,0.00,,,0.00,WUHU21623XXSP,2013-06-06 02:49:00,
2013-06-05 21:54:00,57.0,52.8,29.97,North,0,0.0,0.0,86,0.00,,,0.00,WUHU21623XXSP,2013-06-06 02:54:00,
2013-06-05 21:59:00,57.0,52.8,29.98,North,0,0.0,0.0,86,0.00,,,0.00,WUHU21623XXSP,2013-06-06 02:59:00,
2013-06-05 22:04:00,57.0,52.8,29.98,North,0,0.0,0.0,86,0.00,,,0.00,WUHU21623XXSP,2013-06-06 03:04:00,
2013-06-05 22:09:00,56.8,52.3,29.98,North,0,0.0,0.0,85,0.00,,,0.00,WUHU21623XXSP,2013-06-06 03:09:00,
2013-06-05 22:14:00,56.8,52.3,29.98,North,0,0.0,0.0,85,0.00,,,0.00,WUHU21623XXSP,2013-06-06 03:14:00,
2013-06-05 22:19:00,56.8,52.3,29.97,North,0,0.0,0.0,85,0.00,,,0.00,WUHU21623XXSP,2013-06-06 03:19:00,
2013-06-05 22:24:00,56.8,52.3,29.98,North,0,0.0,0.0,85,0.00,,,0.00,WUHU21623XXSP,2013-06-06 03:24:00,
2013-06-05 22:29:00,56.8,52.3,29.98,North,0,0.0,0.0,85,0.00,,,0.00,WUHU21623XXSP,2013-06-06 03:29:00,
2013-06-05 22:34:00,56.8,52.3,29.98,North,0,0.0,0.0,85,0.00,,,0.00,WUHU21623XXSP,2013-06-06 03:34:00,
2013-06-05 22:39:00,56.8,52.3,29.98,North,0,0.0,0.0,85,0.00,,,0.00,WUHU21623XXSP,2013-06-06 03:39:00,
2013-06-05 22:44:00,56.8,52.3,29.98,North,0,0.0,0.0,85,0.00,,,0.00,WUHU21623XXSP,2013-06-06 03:44:00,
2013-06-05 22:49:00,56.8,52.3,29.98,North,0,0.0,0.0,85,0.00,,,0.00,WUHU21623XXSP,2013-06-06 03:49:00,
2013-06-05 22:54:00,56.8,52.3,29.98,North,0,0.0,0.0,85,0.00,,,0.00,WUHU21623XXSP,2013-06-06 03:54:00,
2013-06-05 23:00:00,56.8,52.3,29.97,North,0,0.0,0.0,85,0.00,,,0.00,WUHU21623XXSP,2013-06-06 04:00:00,
2013-06-05 23:01:00,56.8,52.3,29.97,North,0,0.0,0.0,85,0.00,,,0.00,WUHU21623XXSP,2013-06-06 04:01:00,
2013-06-05 23:07:00,56.7,52.5,29.98,North,0,0.0,0.0,86,0.00,,,0.00,WUHU21623XXSP,2013-06-06 04:07:00,
2013-06-05 23:12:00,56.7,52.5,29.97,North,0,0.0,0.0,86,0.00,,,0.00,WUHU21623XXSP,2013-06-06 04:12:00,
2013-06-05 23:17:00,56.5,52.3,29.97,North,0,0.0,0.0,86,0.00,,,0.00,WUHU21623XXSP,2013-06-06 04:17:00,
2013-06-05 23:22:00,56.5,52.3,29.97,North,0,0.0,0.0,86,0.00,,,0.00,WUHU21623XXSP,2013-06-06 04:22:00,
2013-06-05 23:27:00,56.3,52.1,29.97,North,0,0.0,0.0,86,0.00,,,0.00,WUHU21623XXSP,2013-06-06 04:27:00,
2013-06-05 23:32:00,56.3,52.1,29.97,North,0,0.0,0.0,86,0.00,,,0.00,WUHU21623XXSP,2013-06-06 04:32:00,
2013-06-05 23:37:00,56.3,52.1,29.97,North,0,0.0,0.0,86,0.00,,,0.00,WUHU21623XXSP,2013-06-06 04:37:00,
2013-06-05 23:42:00,56.1,51.9,29.97,North,0,0.0,0.0,86,0.00,,,0.00,WUHU21623XXSP,2013-06-06 04:42:00,
2013-06-05 23:47:00,56.1,51.9,29.97,North,0,0.0,0.0,86,0.00,,,0.00,WUHU21623XXSP,2013-06-06 04:47:00,
2013-06-05 23:52:00,55.9,51.8,29.96,North,0,0.0,0.0,86,0.00,,,0.00,WUHU21623XXSP,2013-06-06 04:52:00,
2013-06-05 23:57:00,55.9,52.1,29.97,North,0,0.0,0.0,87,0.00,,,0.00,WUHU21623XXSP,2013-06-06 04:57:00,